Tracking 35274 objects as of 10-Sep-2026
HD Live streaming from Space Station
objects crossing your sky now

SL-7 DEB


SL-7 DEB is no longer on orbit


NORAD ID: 3647
Int'l Code: 1968-117S
Launch date: December 19, 1968
Source: Commonwealth of Independent States (former USSR) (CIS)
Launch site: PLESETSK MISSILE AND SPACE COMPLEX (PKMTR)
Decay date: 1969-03-19

Note: This is SATELLITE DEBRIS
Your satellite tracking list
Your tracking list is empty




NASA's NSSDC Master Catalog

Two Line Element Set (TLE):
1 03647U 68117  S 69073.86877332  .02439644 +00000-0 +00000-0 0  9994
2 03647 070.9339 229.1599 0045998 287.8543 071.7539 15.88433796012629
Source of the keplerian elements: AFSPC